1338422431486,2.38651
1338422491486,2.38649
1338422551486,2.36739
1338422611486,2.39240
1338422671486,2.36115
1338422731486,2.36240
1338422791486,2.39004
1338422851486,2.38243
1338422911486,2.38610
1338422971486,2.35618
1338423031486,2.35720
1338423091486,2.40089
1338423151486,2.37959
1338423211486,2.39243
1338423271486,2.37469
1338423331486,2.41279
1338423391486,2.39016
1338423451486,2.37858
1338423511486,2.37870
1338423571486,2.38780
1338423631486,2.37660
1338423691486,2.38063
1338423751486,2.35993
1338423811486,2.39566
1338423871486,2.37417
1338423931486,2.37623
1338423991486,2.37108
1338424051486,2.37647
1338424111486,2.38935
1338424171486,2.38866
1338424231486,2.39462
1338424291486,2.37152
1338424351486,2.38790
1338424411486,2.41588
1338424471486,2.39492
1338424531486,2.37395
1338424591486,2.38844
1338424651486,2.37964
1338424711486,2.36931
1338424771486,2.39390
1338424831486,2.37097
1338424891486,2.38417
1338424951486,2.37875
1338425011486,2.37684
1338425071486,2.38537
1338425131486,2.38895
1338425191486,2.37944
1338425251486,2.38609
1338425311486,2.40633
1338425371486,2.39908
1338425431486,2.38886
1338425491486,2.36896
1338425551486,2.42917
1338425611486,2.40461
1338425671486,2.38751
1338425731486,2.40161
1338425791486,2.39209
1338425851486,2.36889
1338425911486,2.40406
1338425971486,2.37004
1338426031497,2.37817
1338426091497,2.37503
1338426151497,2.38542
1338426211497,2.38057
1338426271497,2.40943
1338426331497,2.37165
1338426391497,2.38236
1338426451497,2.37870
1338426511497,2.38953
1338426571497,2.38569
1338426631497,2.37547
1338426691497,2.37946
1338426751497,2.36993
1338426811497,2.40421
1338426871497,2.36778
1338426931497,2.37490
1338426991497,2.36761
1338427051497,2.36542
1338427111497,2.40135
1338427171497,2.40196
1338427231497,2.39956
1338427291497,2.40812
1338427351497,2.36915
1338427411497,2.38438
1338427471497,2.38426
1338427531497,2.39538
1338427591497,2.38938
1338427651497,2.40408
1338427711497,2.40212
1338427771497,2.44471
1338427831497,2.41504
1338427891497,2.39972
1338427951497,2.41480
1338428011497,2.41846
1338428071497,2.42251
1338428131497,2.39695
1338428191497,2.40093
1338428251497,2.38776
1338428311497,2.41703
1338428371497,2.44037
1338428431497,2.40224
1338428491497,2.42052
1338428551497,2.40750
1338428611497,2.41762
1338428671497,2.38326
1338428731497,2.41866
1338428791497,2.40924
1338428851497,2.38543
1338428911497,2.40686
1338428971497,2.41736
1338429031497,2.40222
1338429091497,2.42447
1338429151497,2.39280
1338429211497,2.40605
1338429271497,2.39834
1338429331497,2.40189
1338429391497,2.39967
1338429451497,2.38964
1338429511497,2.38519
1338429571497,2.39067
1338429631508,2.39050
1338429691508,2.40954
1338429751508,2.39384
1338429811508,2.39556
1338429871508,2.39342
1338429931508,2.38216
1338429991508,2.38727
1338430051508,2.38364
1338430111508,2.38595
1338430171508,2.38914
1338430231508,2.38858
1338430291508,2.36841
1338430351508,2.38169
1338430411508,2.39137
1338430471508,2.41146
1338430531508,2.38068
1338430591508,2.39561
1338430651508,2.39021
1338430711508,2.37967
1338430771508,2.36419
1338430831508,2.36506
1338430891508,2.38948
1338430951508,2.38276
1338431011508,2.37235
1338431071508,2.35463
1338431131508,2.36609
1338431191508,2.35579
1338431251508,2.37082
1338431311508,2.37593
1338431371508,2.38831
1338431431508,2.37541
1338431491508,2.37172
1338431551508,2.35115
1338431611508,2.37171
1338431671508,2.36607
1338431731508,2.36203
1338431791508,2.35259
1338431851508,2.37764
1338431911508,2.38448
1338431971508,2.37656
1338432031508,2.39170
1338432091508,2.38222
1338432151508,2.35563
1338432211508,2.38339
1338432271508,2.38204
1338432331508,2.35900
1338432391508,2.36768
1338432451508,2.38313
1338432511508,2.36582
1338432571508,2.38066
1338432631508,2.35866
1338432691508,2.34983
1338432751508,2.35373
1338432811508,2.37543
1338432871508,2.37603
1338432931508,2.38697
1338432991508,2.37452
1338433051508,2.39657
1338433111508,2.37483
1338433171508,2.36558
1338433231518,2.37743
1338433291518,2.38021
1338433351518,2.37634
1338433411518,2.36691
1338433471518,2.38698
1338433531518,2.37884
1338433591518,2.37699
1338433651518,2.38276
1338433711518,2.37141
1338433771518,2.38075
1338433831518,2.37836
1338433891518,2.37465
1338433951518,2.39086
1338434011518,2.36107
1338434071518,2.38183
1338434131518,2.36619
1338434191518,2.36381
1338434251518,2.39020
1338434311518,2.38616
1338434371518,2.38744
1338434431518,2.36715
1338434491518,2.39286
1338434551518,2.37005
1338434611518,2.37642
1338434671518,2.35748
1338434731518,2.39407
1338434791518,2.40529
1338434851518,2.36649
1338434911518,2.36823
1338434971518,2.35875
1338435031518,2.39084
1338435091518,2.38496
1338435151518,2.36488
1338435211518,2.34841
1338435271518,2.39264
1338435331518,2.38926
1338435391518,2.36259
1338435451518,2.37508
1338435511518,2.39186
1338435571518,2.39904
1338435631518,2.38831
1338435691518,2.39483
1338435751518,2.39053
1338435811518,2.39680
1338435871518,2.37839
1338435931518,2.35333
1338435991518,2.36774
1338436051518,2.39712
1338436111518,2.40412
1338436171518,2.36472
1338436231518,2.39910
1338436291518,2.36524
1338436351518,2.38506
1338436411518,2.41376
1338436471518,2.37859
1338436531518,2.38168
1338436591518,2.40494
1338436651518,2.40173
1338436711518,2.35106
1338436771518,2.37011
1338436831528,2.38307
1338436891528,2.36361
1338436951528,2.36964
1338437011528,2.39418
1338437071528,2.37292
1338437131528,2.38220
1338437191528,2.39852
1338437251528,2.38101
1338437311528,2.39912
1338437371528,2.39073
1338437431528,2.38566
1338437491528,2.38295
1338437551528,2.40509
1338437611528,2.38976
1338437671528,2.39423
1338437731528,2.41820
1338437791528,2.41541
1338437851528,2.42499
1338437911528,2.41644
1338437971528,2.39477
1338438031528,2.38642
1338438091528,2.39056
1338438151528,2.40177
1338438211528,2.38526
1338438271528,2.40207
1338438331528,2.39548
1338438391528,2.39726
1338438451528,2.39661
1338438511528,2.40446
1338438571528,2.39687
1338438631528,2.39957
1338438691528,2.41653
1338438751528,2.40829
1338438811528,2.39799
1338438871528,2.40897
1338438931528,2.40058
1338438991528,2.40302
1338439051528,2.39264
1338439111528,2.39317
1338439171528,2.40233
1338439231528,2.40129
1338439291528,2.39904
1338439351528,2.41870
1338439411528,2.43019
1338439471528,2.40235
1338439531528,2.40463
1338439591528,2.40957
1338439651528,2.40915
1338439711528,2.41808
1338439771528,2.40267
1338439831528,2.38597
1338439891528,2.42512
1338439951528,2.41365
1338440011528,2.39141
1338440071528,2.40583
1338440131528,2.43696
1338440191528,2.41771
1338440251528,2.43093
1338440311528,2.42687
1338440371528,2.44102
1338440431538,2.42416
1338440491538,2.43508
1338440551538,2.44945
1338440611538,2.41645
1338440671538,2.40249
1338440731538,2.39773
1338440791538,2.42636
1338440851538,2.40588
1338440911538,2.40437
1338440971538,2.40805
1338441031538,2.44595
1338441091538,2.40797
1338441151538,2.40789
1338441211538,2.42257
1338441271538,2.42688
1338441331538,2.41813
1338441391538,2.40471
1338441451538,2.40486
1338441511538,2.42383
1338441571538,2.41074
1338441631538,2.44144
1338441691538,2.44964
1338441751538,2.39850
1338441811538,2.42729
1338441871538,2.41802
1338441931538,2.42970
1338441991538,2.41911
1338442051538,2.42472
1338442111538,2.43507
1338442171538,2.42648
1338442231538,2.42702
1338442291538,2.41462
1338442351538,2.42086
1338442411538,2.42722
1338442471538,2.43576
1338442531538,2.42763
1338442591538,2.45221
1338442651538,2.43642
1338442711538,2.40854
1338442771538,2.44124
1338442831538,2.43751
1338442891538,2.43094
1338442951538,2.45611
1338443011538,2.43562
1338443071538,2.42411
1338443131538,2.44172
1338443191538,2.44864
1338443251538,2.45128
1338443311538,2.43681
1338443371538,2.43665
1338443431538,2.44191
1338443491538,2.43876
1338443551538,2.45316
1338443611538,2.45689
1338443671538,2.46038
1338443731538,2.45013
1338443791538,2.44926
1338443851538,2.43289
1338443911538,2.45223
1338443971538,2.44517
1338444031548,2.42658
1338444091548,2.43293
1338444151548,2.45397
1338444211548,2.46060
1338444271548,2.45251
1338444331548,2.44733
1338444391548,2.43040
1338444451548,2.45829
1338444511548,2.44687
1338444571548,2.47770
1338444631548,2.45820
1338444691548,2.46709
1338444751548,2.45315
1338444811548,2.46877
1338444871548,2.46443
1338444931548,2.46753
1338444991548,2.45526
1338445051548,2.46693
1338445111548,2.44407
1338445171548,2.45043
1338445231548,2.46066
1338445291548,2.47138
1338445351548,2.46361
1338445411548,2.45357
1338445471548,2.46779
1338445531548,2.44652
1338445591548,2.42914
1338445651548,2.44782
1338445711548,2.45588
1338445771548,2.45299
1338445831548,2.44318
1338445891548,2.47831
1338445951548,2.44667
1338446011548,2.46492
1338446071548,2.46082
1338446131548,2.44449
1338446191548,2.46040
1338446251548,2.45465
1338446311548,2.44253
1338446371548,2.43763
1338446431548,2.44473
1338446491548,2.46127
1338446551548,2.46487
1338446611548,2.42976
1338446671548,2.46415
1338446731548,2.44961
1338446791548,2.44188
1338446851548,2.45667
1338446911548,2.46493
1338446971548,2.43654
1338447031548,2.45522
1338447091548,2.45657
1338447151548,2.43929
1338447211548,2.41919
1338447271548,2.44355
1338447331548,2.44841
1338447391548,2.45606
1338447451548,2.44447
1338447511548,2.45054
1338447571548,2.46755
1338447631557,2.43925
1338447691557,2.43118
1338447751557,2.44404
1338447811557,2.45034
1338447871557,2.45286
1338447931557,2.44164
1338447991557,2.47104
1338448051557,2.42573
1338448111557,2.45726
1338448171557,2.44184
1338448231557,2.44725
1338448291557,2.42335
1338448831557,2.42634
1338448891557,2.41188
1338448951557,2.42468
1338449011557,2.42536
1338449071557,2.44530
1338449131557,2.42177
1338449191557,2.42254
1338449251557,2.41400
1338449311557,2.40801
1338449371557,2.42068
1338449431557,2.40517
1338449491557,2.41317
1338449551557,2.42922
1338449611557,2.42284
1338449671557,2.40716
1338449731557,2.42802
1338449791557,2.43458
1338449851557,2.40607
1338449911557,2.44871
1338449971557,2.42828
1338450031557,2.41129
1338450091557,2.43143
1338450151557,2.43071
1338450211557,2.40310
1338450271557,2.40107
1338450331557,2.43509
1338450391557,2.42078
1338450451557,2.41373
1338450511557,2.43203
1338450571557,2.41699
1338450631557,2.42343
1338450691557,2.41538
1338450751557,2.42766
1338450811557,2.43602
1338450871557,2.41852
1338450931557,2.41172
1338450991557,2.42195
1338451051557,2.42847
1338451111557,2.42328
1338451171557,2.42846
1338451231567,2.43387
1338451291567,2.42187
1338451351567,2.41877
1338451411567,2.42527
1338451471567,2.42393
1338451531567,2.40034
1338451591567,2.42138
1338451651567,2.42999
1338451711567,2.41819
1338451771567,2.42174
1338451831567,2.41911
1338451891567,2.42201
1338451951567,2.42503
1338452011567,2.42375
1338452071567,2.41041
1338452131567,2.40526
1338452191567,2.41202
1338452251567,2.41916
1338452311567,2.42961
1338452371567,2.40780
1338452431567,2.41309
1338452491567,2.42223
1338452551567,2.43761
1338452611567,2.44031
1338452671567,2.42319
1338452731567,2.43219
1338452791567,2.41222
1338452851567,2.42622
1338452911567,2.40852
1338452971567,2.43469
1338453031567,2.42747
1338453091567,2.43977
1338453151567,2.43752
1338453211567,2.41709
1338453271567,2.41239
1338453331567,2.41991
1338453391567,2.43050
1338453451567,2.41321
1338453511567,2.43838
1338453571567,2.42300
1338453631567,2.40117
1338453691567,2.42536
1338453751567,2.42665
1338453811567,2.43722
1338453871567,2.41963
1338453931567,2.43796
1338453991567,2.42422
1338454051567,2.40666
1338454111567,2.45704
1338454171567,2.42161
1338454231567,2.44574
1338454291567,2.44043
1338454351567,2.41658
1338454411567,2.42831
1338454471567,2.39819
1338454531567,2.45559
1338454591567,2.43782
1338454651567,2.41826
1338454711567,2.43602
1338454771567,2.43457
1338454831577,2.40268
1338454891577,2.44241
1338454951577,2.41872
1338455011577,2.40891
1338455071577,2.43889
1338455131577,2.40377
1338455191577,2.43014
1338455251577,2.40802
1338455311577,2.41491
1338455371577,2.41577
1338455431577,2.41517
1338455491577,2.41595
1338455551577,2.58718
1338455611577,2.41082
1338455671577,2.43095
1338455731577,2.42628
1338455791577,2.40970
1338455851577,2.41579
1338455911577,2.42356
1338455971577,2.42433
1338456031577,2.44409
1338456091577,2.41335
1338456151577,2.45356
1338456211577,2.42669
1338456271577,2.41961
1338456331577,2.42108
1338456391577,2.41231
1338456451577,2.41316
1338456511577,2.42665
1338456571577,2.42373
1338456631577,2.40712
1338456691577,2.41202
1338456751577,2.38805
1338456811577,2.42188
1338456871577,2.38745
1338456931577,2.42044
1338456991577,2.42119
1338457051577,2.45279
1338457111577,2.42553
1338457171577,2.41229
1338457231577,2.42163
1338457291577,2.41846
1338457351577,2.41430
1338457411577,2.41276
1338457471577,2.40770
1338457531577,2.40114
1338457591577,2.38183
1338457651577,2.39882
1338457711577,2.39177
1338457771577,2.40026
1338457831577,2.39165
1338457891577,2.41025
1338457951577,2.39454
1338458011577,2.40597
1338458071577,2.40905
1338458131577,2.39567
1338458191577,2.40177
1338458251577,2.41979
1338458311577,2.41654
1338458371577,2.41120
1338458431586,2.39522
1338458491586,2.43748
1338458551586,2.40207
1338458611586,2.40689
1338458671586,2.41437
1338458731586,2.43124
1338458791586,2.41773
1338458851586,2.44056
1338458911586,2.41147
1338458971586,2.42411
1338459031586,2.44352
1338459091586,2.39979
1338459151586,2.43107
1338459211586,2.42402
1338459271586,2.43582
1338459331586,2.42360
1338459391586,2.40760
1338459451586,2.41442
1338459511586,2.42989
1338459571586,2.41894
1338459631586,2.41235
1338459691586,2.43750
1338459751586,2.41731
1338459811586,2.41496
1338459871586,2.41980
1338459931586,2.43071
1338459991586,2.41852
1338460051586,2.41859
1338460111586,2.41695
1338460171586,2.42980
1338460231586,2.43446
1338460291586,2.41803
1338460351586,2.44280
1338460411586,2.43720
1338460471586,2.42986
1338460531586,2.41384
1338460591586,2.42889
1338460651586,2.44003
1338460711586,2.42152
1338460771586,2.42879
1338460831586,2.42803
1338460891586,2.43668
1338460951586,2.41803
1338461011586,2.43181
1338461071586,2.41087
1338461131586,2.43868
1338461191586,2.42173
1338461251586,2.43983
1338461311586,2.42473
1338461371586,2.41203
1338461431586,2.42754
1338461491586,2.43006
1338461551586,2.45407
1338461611586,2.44231
1338461671586,2.42220
1338461731586,2.42953
1338461791586,2.44148
1338461851586,2.42664
1338461911586,2.45269
1338461971586,2.43344
1338462031596,2.43266
1338462091596,2.45929
1338462151596,2.41668
1338462211596,2.43571
1338462271596,2.41708
1338462331596,2.42529
1338462391596,2.43231
1338462451596,2.43362
1338462511596,2.42213
1338462571596,2.42798
1338462631596,2.46207
1338462691596,2.41964
1338462751596,2.42906
1338462811596,2.44091
1338462871596,2.44490
1338462931596,2.42441
1338462991596,2.43410
1338463051596,2.42910
1338463111596,2.44026
1338463171596,2.44903
1338463231596,2.44163
1338463291596,2.41177
1338463351596,2.44064
1338463411596,2.42410
1338463471596,2.43222
1338463531596,2.45670
1338463591596,2.43587
1338463651596,2.44011
1338463711596,2.44067
1338463771596,2.44392
1338463831596,2.43339
1338463891596,2.43619
1338463951596,2.42634
1338464011596,2.44843
1338464071596,2.43112
1338464131596,2.42972
1338464191596,2.42820
1338464251596,2.45447
1338464311596,2.42470
1338464371596,2.43286
1338464431596,2.43845
1338464491596,2.44968
1338464551596,2.43882
1338464611596,2.45806
1338464671596,2.45352
1338464731596,2.45837
1338464791596,2.44085
1338464851596,2.44738
1338464911596,2.43518
1338464971596,2.43310
1338465031596,2.43524
1338465091596,2.43600
1338465151596,2.42486
1338465211596,2.42923
1338465271596,2.44340
1338465331596,2.42232
1338465391596,2.44479
1338465451596,2.45724
1338465511596,2.45644
1338465571596,2.41721
1338465631605,2.43366
1338465691605,2.45236
1338465751605,2.45129
1338465811605,2.44430
1338465871605,2.43006
1338465931605,2.44469
1338465991605,2.44283
1338466051605,2.43602
1338466111605,2.45790
1338466171605,2.43961
1338466231605,2.42718
1338466291605,2.45324
1338466351605,2.42874
1338466411605,2.44702
1338466471605,2.46955
1338466531605,2.44860
1338466591605,2.46952
1338466651605,2.44021
1338466711605,2.46575
1338466771605,2.45442
1338466831605,2.44352
1338466891605,2.45806
1338466951605,2.45176
1338467011605,2.44586
1338467071605,2.44082
1338467131605,2.45334
1338467191605,2.46807
1338467251605,2.43404
1338467311605,2.46009
1338467371605,2.44813
1338467431605,2.44076
1338467491605,2.45219
1338467551605,2.42613
1338467611605,2.45854
1338467671605,2.43454
1338467731605,2.44209
1338467791605,2.46614
1338467851605,2.45360
1338467911605,2.45441
1338467971605,2.44089
1338468031605,2.43892
1338468091605,2.45844
1338468151605,2.49490
1338468211605,2.47791
1338468271605,2.46531
1338468331605,2.43657
1338468391605,2.47447
1338468451605,2.43628
1338468511605,2.46355
1338468571605,2.47039
1338468631605,2.45759
1338468691605,2.46234
1338468751605,2.47017
1338468811605,2.44775
1338468871605,2.44484
1338468931605,2.41781
1338468991605,2.45414
1338469051605,2.44866
1338469111605,2.43747
1338469171605,2.44152
1338469231598,2.43304
1338469291598,2.46581
1338469351598,2.44417
1338469411598,2.47695
1338469471598,2.45015
1338469531598,2.43603
1338469591598,2.45718
1338469651598,2.44963
1338469711598,2.44187
1338469771598,2.43471
1338469831598,2.44145
1338469891598,2.44428
1338469951598,2.43836
1338470011598,2.42548
1338470071598,2.43141
1338470131598,2.43247
1338470191598,2.45191
1338470251598,2.43655
1338470311598,2.45974
1338470371598,2.42768
1338470431598,2.45386
1338470491598,2.42749
1338470551598,2.44057
1338470611598,2.43713
1338470671598,2.45234
1338470731598,2.43703
1338470791598,2.44650
1338470851598,2.46513
1338470911598,2.44873
1338470971598,2.44986
1338471031598,2.44983
1338471091598,2.45552
1338471151598,2.45248
1338471211598,2.42708
1338471271598,2.43899
1338471331598,2.45297
1338471391598,2.44409
1338471451598,2.46555
1338471511598,2.43199
1338471571598,2.47221
1338471631598,2.46622
1338471691598,2.46094
1338471751598,2.42058
1338471811598,2.48186
1338471871598,2.45396
1338471931598,2.44815
1338471991598,2.43494
1338472051598,2.45269
1338472111598,2.44926
1338472171598,2.45238
1338472231598,2.45892
1338472291598,2.47882
1338472351598,2.45157
1338472411598,2.48783
1338472471598,2.46652
1338472531598,2.55309
1338472591598,2.46276
1338472651598,2.45242
1338472711598,2.47499
1338472771598,2.46571
1338472831608,2.45859
1338472891608,2.49632
1338472951608,2.46394
1338473011608,2.49498
1338473071608,2.48643
1338473131608,2.46901
1338473191608,2.43876
1338473251608,2.47093
1338473311608,2.48244
1338473371608,2.47667
1338473431608,2.48600
1338473491608,2.48203
1338473551608,2.46518
1338473611608,2.47961
1338473671608,2.49749
1338473731608,2.46616
1338473791608,2.47871
1338473851608,2.50004
1338473911608,2.47317
1338473971608,2.49230
1338474031608,2.46768
1338474091608,2.51082
1338474151608,2.49073
1338474211608,2.49876
1338474271608,2.48724
1338474331608,2.48925
1338474391608,2.48122
1338474451608,2.49353
1338474511608,2.50080
1338474571608,2.51334
1338474631608,2.48788
1338474691608,2.51465
1338474751608,2.52645
1338474811608,2.51527
1338474871608,2.52941
1338474931608,2.53892
1338474991608,2.54571
1338475051608,2.52272
1338475111608,2.50002
1338475171608,2.51694
1338475231608,2.53560
1338475291608,2.51830
1338475351608,2.53351
1338475411608,2.51252
1338475471608,2.53464
1338475531608,2.52316
1338475591608,2.52819
1338475651608,2.51372
1338475711608,2.51927
1338475771608,2.50433
1338475831608,2.50468
1338475891608,2.51361
1338475951608,2.51774
1338476011608,2.51346
1338476071608,2.47796
1338476131608,2.50839
1338476191608,2.51187
1338476251608,2.53791
1338476311608,2.51110
1338476371608,2.51483
1338476431617,2.49072
1338476491617,2.50839
1338476551617,2.50782
1338476611617,2.51227
1338476671617,2.50694
1338476731617,2.49933
1338476791617,2.51437
1338476851617,2.52445
1338476911617,2.50864
1338476971617,2.52752
1338477031617,2.51974
1338477091617,2.52268
1338477151617,2.54905
1338477211617,2.51597
1338477271617,2.52744
1338477331617,2.53769
1338477391617,2.53977
1338477451617,2.54214
1338477511617,2.53376
1338477571617,2.54071
1338477631617,2.51202
1338477691617,2.53562
1338477751617,2.51879
1338477811617,2.51554
1338477871617,2.51343
1338477931617,2.50735
1338477991617,2.52398
1338478051617,2.74615
1338478111617,2.52029
1338478171617,2.53279
1338478231617,2.51673
1338478291617,2.51481
1338478351617,2.52717
1338478411617,2.50803
1338478471617,2.52660
1338478531617,2.52041
1338478591617,2.50447
1338478651617,2.50266
1338478711617,2.52334
1338478771617,2.49289
1338478831617,2.51125
1338478891617,2.51232
1338478951617,2.52907
1338479011617,2.51450
1338479071617,2.51141
1338479131617,2.57050
1338479191617,2.53289
1338479251617,2.58031
1338479311617,2.53869
1338479371617,2.51129
1338479431617,2.52386
1338479491617,2.53128
1338479551617,2.50275
1338479611617,2.50560
1338479671617,2.50235
1338479731617,2.51099
1338479791617,2.49004
1338479851617,2.49825
1338479911617,2.51060
1338479971617,2.47677
1338480031627,2.52215
1338480091627,2.51336
1338480151627,2.48517
1338480211627,2.49494
1338480271627,2.44661
1338480331627,2.50913
1338480391627,2.49948
1338480451627,2.47084
1338480511627,2.49659
1338480571627,2.46312
1338480631627,2.48007
1338480691627,2.47703
1338480751627,2.54696
1338480811627,2.48072
1338480871627,2.45701
1338480931627,2.45908
1338480991627,2.49368
1338481051627,2.46920
1338481111627,2.38737
1338481171627,2.47473
1338481231627,2.46033
1338481291627,2.49248
1338481351627,2.49071
1338481411627,2.48973
1338481471627,2.46851
1338481531627,2.47977
1338481591627,2.47731
1338481651627,2.47095
1338481711627,2.46355
1338481771627,2.46189
1338481831627,2.46107
1338481891627,2.47901
1338481951627,2.47285
1338482011627,2.48461
1338482071627,2.51220
1338482131627,2.49608
1338482191627,2.47251
1338482251627,2.56841
1338482311627,2.45859
1338482371627,2.47769
1338482431627,2.49593
1338482491627,2.45142
1338482551627,2.45660
1338482611627,2.45122
1338482671627,2.46542
1338482731627,2.46756
1338482791627,2.48277
1338482851627,2.47636
1338482911627,2.45543
1338482971627,2.47455
1338483031627,2.46497
1338483091627,2.67777
1338483151627,2.45715
1338483211627,2.48659
1338483271627,2.44793
1338483331627,2.44649
1338483391627,2.49019
1338483451627,2.48810
1338483511627,2.46709
1338483571627,2.43883
1338483631636,2.45648
1338483691636,2.46426
1338483751636,2.47934
1338483811636,2.47468
1338483871636,2.47682
1338483931636,2.48192
1338483991636,2.46415
1338484051636,2.48021
1338484111636,2.47501
1338484171636,2.48152
1338484231636,2.44606
1338484291636,2.45994
1338484351636,2.46957
1338484411636,2.45092
1338484471636,2.45559
1338484531636,2.46853
1338484591636,2.45878
1338484651636,2.48067
1338484711636,2.43949
1338484771636,2.47384
1338484831636,2.48935
1338484891636,2.48062
1338484951636,2.45341
1338485011636,2.47992
1338485071636,2.47738
1338485131636,2.46893
1338485191636,2.46972
1338485251636,2.48184
1338485311636,2.48249
1338485371636,2.48319
1338485431636,2.50148
1338485491636,2.49369
1338485551636,2.47555
1338485611636,2.49226
1338485671636,2.48829
1338485731636,2.47818
1338485791636,2.48076
1338485851636,2.47719
1338485911636,2.48572
1338485971636,2.48133
1338486031636,2.49648
1338486091636,2.48812
1338486151636,2.48366
1338486211636,2.49642
1338486271636,2.49630
1338486331636,2.49919
1338486391636,2.48241
1338486451636,2.46623
1338486511636,2.49058
1338486571636,2.46665
1338486631636,2.49261
1338486691636,2.47192
1338486751636,2.48811
1338486811636,2.49220
1338486871636,2.49690
1338486931636,2.49158
1338486991636,2.48197
1338487051636,2.51789
1338487111636,2.49748
1338487171636,2.47037
1338487231646,2.47150
1338487291646,2.48022
1338487351646,2.47461
1338487411646,2.48674
1338487471646,2.48845
1338487531646,2.48951
1338487591646,2.51508
1338487651646,2.49887
1338487711646,2.49365
1338487771646,2.50651
1338487831646,2.48823
1338487891646,2.59615
1338487951646,2.47166
1338488011646,2.47134
1338488071646,2.50201
1338488131646,2.47841
1338488191646,2.46288
1338488251646,2.50135